Home > Weather > Nuuk > Past weeks

Flag for Greenland Weather for the Past 2 Weeks in Nuuk, Greenland

Now
10 °F

Light snow. Overcast.


Feels Like: -3 °F
Forecast: 9 / 14 °F
Wind: 10 mph from Northwest

Location: Godthaab / Nuuk

Current Time: Feb 9, 2016 at 11:39:07 AM

Latest Report: Feb 9, 2016 at 9:50 AM


Visibility: 2 mi

Pressure: 29.98 "Hg

Humidity: 92%

Dew point: 9 °F

Location of NuukLocation

Historic Weather in Nuuk — Graph

°F

Nuuk Temperature Yesterday

Maximum temperature yesterday: 18 °F (at 12:50 AM)
Minimum temperature yesterday: 10 °F (at 10:50 PM)
Average temperature yesterday: 14 °F

High & Low Weather Summary for the Past Weeks

 TemperatureHumidityPressure
High36 °F (Feb 3, 1:50 PM)100% (Jan 25, 9:50 AM)29.98 "Hg (Jan 25, 9:50 AM)
Low1 °F (Jan 25, 1:50 PM)40% (Feb 3, 9:50 PM)28.85 "Hg (Jan 28, 12:50 PM)
Average15 °F76%29.41 "Hg
* Reported Jan 25 9:50 AM — Feb 9 9:50 AM, Nuuk, Weather by CustomWeather, © 2016

Note: Actual official high and low records may vary slightly from our data, if they occured in-between our weather recording intervals... More about our weather records

Advertising

Nuuk Weather History for the Previous 24 Hours

 ConditionsComfort  
Time TempWeatherWind HumidityBarometerVisibility
9:50 AM
Tue, Feb 9
10 °FLight snow. Overcast.10 mph92%29.98 "Hg2 mi
8:50 AM9 °FSnow. Ice fog.14 mph100%29.95 "Hg1 mi
7:50 AM10 °FSnow. Ice fog.14 mph100%29.89 "Hg0 mi
6:50 AM12 °FLight snow. Overcast.18 mph85%29.89 "HgN/A
5:50 AM10 °FSnow. Ice fog.1 mph100%29.89 "Hg1 mi
4:50 AM10 °FSleet. Low clouds.7 mph100%29.89 "Hg1 mi
3:50 AM10 °FLight snow. Overcast.9 mph92%29.86 "HgN/A
2:50 AM10 °FSnow flurries. Overcast.3 mph85%29.86 "HgN/A
1:50 AM10 °FLight snow. Overcast.3 mph85%29.86 "Hg3 mi
12:50 AM10 °FLight snow. Overcast.9 mph85%29.86 "HgN/A
11:50 PM
Mon, Feb 8
10 °FLight snow. Passing clouds.12 mph85%29.86 "HgN/A
10:50 PM10 °FSleet. Passing clouds.12 mph100%29.86 "Hg2 mi
9:50 PM12 °FLight snow. Passing clouds.10 mph92%29.86 "Hg1 mi
8:50 PM12 °FLight snow. Passing clouds.10 mph100%29.83 "Hg4 mi
7:50 PM12 °FLight snow. Overcast.13 mph92%29.83 "HgN/A
6:50 PM12 °FLight snow. Overcast.15 mph100%29.80 "Hg2 mi
5:50 PM12 °FLight snow. Overcast.10 mph100%29.80 "Hg3 mi
4:50 PM12 °FSnow flurries. Overcast.14 mph100%29.77 "Hg2 mi
3:50 PM14 °FSnow flurries. Cloudy.12 mph92%29.77 "Hg2 mi
2:50 PM14 °FSnow flurries. More clouds than sun.12 mph92%29.74 "Hg3 mi
1:50 PM14 °FSnow flurries. Overcast.14 mph92%29.71 "Hg2 mi
12:50 PM14 °FSnow flurries. Overcast.13 mph92%29.68 "Hg2 mi
11:50 AM14 °FLight snow. Partly sunny.15 mph92%29.68 "HgN/A
Weather by CustomWeather, © 2016

See weather overviewHow to use our weather pages